Location: Newark
(25.0000°N, 73.5000°E)
Time: 04:18:25
(UTC+00:00)

ISS - Pass Details

Date: 19 June 2021
Orbit: 419 x 421 km, 51.6° (Epoch: 03 August)

Event Time Altitude Azimuth Distance (km) Brightness Sun altitude
Exits shadow 23:43:35 - 193° (SSW) 2,248 -0.5 -7.5°
Reaches altitude 10° 23:45:44 10° 177° (S) 1,487 -1.2 -7.0°
Maximum altitude 23:48:20 21° 126° (SE) 995 -1.5 -6.5°
Drops below altitude 10° 23:50:55 10° 75° (ENE) 1,492 0.6 -6.0°
Sets 23:53:20 0° 58° (ENE) 2,357 3.0 -5.5°
